Location: Bukit Melaban
(2.8000°N, 113.3667°E)
Time: 23:31:22
(UTC+00:00)

Daily predictions for brighter satellites

Satellite Brightness Start Highest point End
(mag) Time Altitude Azimuth Time Altitude Azimuth Time Altitude Azimuth
Cosmos 1766 3.0 12:05:31 10° N 12:09:12 81° W 12:09:32 71° SSW
Cosmos 1980 Rocket 2.2 12:04:10 10° NNW 12:09:46 81° WSW 12:12:33 31° S
DELTA 2 R/B (1) 4.5 12:07:54 10° WNW 12:13:08 41° SW 12:15:06 30° S
USA 215 3.3 12:13:36 32° SSE 12:16:55 72° SW 12:23:26 10° NW
IRIDIUM 106 4.2 12:14:53 10° N 12:20:04 75° E 12:20:51 62° SSE
Delta 198 4.3 12:16:50 10° WSW 12:23:11 82° SSE 12:25:10 48° ENE
Cosmos 1763 Rocket 3.2 12:19:35 10° NNW 12:24:41 87° E 12:25:04 77° SSE
Palapa B4 Rocket 4.0 12:32:01 10° W 12:35:00 40° WNW 12:35:00 40° WNW
CZ-4B R/B 3.4 12:39:20 55° NNE 12:39:20 55° NNE 12:43:33 10° N
MAQSAT/ARIANE V 2.9 12:31:30 10° W 12:40:01 50° WSW 12:40:01 50° WSW
CZ-4 R/B 3.0 12:45:40 32° WNW 12:45:40 32° WNW 12:48:21 10° NNW
Resurs 01 Rocket 3.5 12:51:33 25° N 12:51:33 25° N 12:53:23 10° N
Cosmos 540 Rocket 4.1 12:47:44 10° NNW 12:51:41 50° NW 12:51:41 50° NW
ARIANE 5 DEB (SYLDA) 4.0 12:43:24 10° W 12:53:00 64° W 12:53:00 64° W
COSMOS 2455 3.9 13:15:31 39° NNW 13:15:31 39° NNW 13:19:47 10° N
SL-16 R/B 4.0 13:17:07 10° NNW 13:19:21 25° NNW 13:19:21 25° NNW
FALCON 9 R/B 3.4 13:16:58 10° WNW 13:22:44 84° SW 13:22:44 84° SW
ARIANE 5 R/B 4.2 13:34:22 10° W 13:40:54 29° W 13:40:54 29° W
Ariane H10+ 4.2 13:58:19 10° W 14:33:10 - E 14:03:24 52° W
SL-16 R/B 4.4 19:06:54 24° NE 19:06:54 24° NE 19:09:47 10° NNE
CZ-3 R/B 4.4 18:10:44 10° WNW 19:14:36 67° SW 19:29:33 10° SE
Cosmos 2016 Rocket 4.5 19:48:09 56° ENE 19:48:09 56° ENE 19:53:33 10° NNE
ARIANE 5 R/B 3.8 19:58:42 76° SE 19:58:42 76° SE 20:22:38 10° E
ATLAS 3B R/B 3.4 20:00:33 39° NNW 20:00:33 39° NNW 20:05:23 10° N
H-2A R/B 3.0 19:57:48 10° NNE 20:02:21 41° E 20:02:21 41° E
Cosmos 2056 Rocket 3.8 20:12:27 66° E 20:12:27 66° E 20:17:43 10° NNE
Hubble Space Telescope 2.9 20:17:42 19° N 20:17:42 19° N 20:19:22 10° NNE
Cosmos 2061 Rocket 3.9 20:22:20 59° S 20:23:40 86° W 20:29:57 10° N
USA 229 DEB 3.2 20:29:18 67° SW 20:30:07 82° WNW 20:36:05 10° NNE
USA 59 Rocket 3.4 20:29:11 10° SE 20:30:13 10° ESE 20:31:12 10° ESE
USA 229 3.2 20:29:23 66° SW 20:30:14 83° WNW 20:36:12 10° NNE
Meteor 2-21 Rocket 4.4 20:26:03 10° N 20:32:08 82° E 20:38:06 11° S
Meteor 1-26 Rocket 4.0 20:26:44 10° N 20:32:08 75° W 20:32:49 65° SSW
Cosmos 1420 Rocket 4.3 20:32:51 50° NW 20:32:51 50° NW 20:37:18 10° N
Cosmos 1939 Rocket 3.5 20:28:31 10° NNE 20:32:12 48° E 20:32:21 47° ESE
Cosmos 2369 Rocket 2.0 20:34:48 62° SW 20:35:45 79° WNW 20:41:19 10° NNE
Cosmos 2221 2.5 20:33:02 10° N 20:37:13 77° E 20:37:41 67° SE
Cosmos 1269 Rocket 4.1 20:32:44 10° N 20:38:00 76° ENE 20:43:17 10° SSE
Lacrosse 4 Rocket 4.2 20:38:00 10° SE 20:39:12 11° ESE 20:40:24 10° E
CBERS-1 3.9 20:35:40 10° NNE 20:40:46 89° WNW 20:42:28 44° SSW
GOES 2 Rocket 4.1 20:46:35 31° S 20:46:35 31° S 20:49:44 10° SE
Ariane H10 2.5 20:45:51 33° NNE 20:45:51 33° NNE 20:48:14 10° ENE
deb Ariane 4.1 20:44:35 27° W 20:48:42 82° N 20:51:58 10° E
BREEZE-M DEB (TANK) 3.3 20:47:55 45° W 20:49:02 57° SW 21:00:42 10° SSE
Delta 142 4.1 20:53:29 25° WNW 20:56:37 88° SSW 21:03:17 10° ESE
Meteor 1-20 Rocket 4.3 20:54:37 28° SSW 20:57:37 62° W 21:03:22 10° N
Cosmos 1484 Rocket 3.3 20:55:09 10° N 20:58:08 37° WNW 20:58:08 37° WNW
H-2A R/B 2.2 20:56:58 38° SSW 20:58:42 67° SE 21:06:18 10° ENE
BREEZE-M DEB (TANK) 4.4 20:58:43 34° SW 21:00:43 89° NW 21:12:50 10° NE
DMSP B5D2-2 4.2 21:02:05 10° S 21:07:11 51° WSW 21:12:16 10° NNW
ARGOS 3.1 21:03:30 10° NNE 21:08:55 87° W 21:14:20 10° SSW
Cosmos 1833 Rocket 3.3 21:04:45 10° NW 21:09:39 31° WSW 21:14:34 10° SSW
IRS-1C 4.4 21:05:27 10° NNE 21:10:44 71° ESE 21:16:03 10° S
Palapa 6 Rocket 3.6 21:08:27 27° W 21:11:35 64° NNW 21:16:24 10° ENE
ATLAS 5 CENTAUR R/B 4.3 21:12:32 14° SW 21:14:26 15° SSW 21:18:30 10° S
ARIANE 5 R/B 0.9 21:16:43 42° W 21:17:21 89° SSE 21:21:19 10° E
ATLAS CENTAUR R/B 3.9 21:17:34 10° N 21:21:07 26° ENE 21:24:44 10° SE
Ariane H10+ 2.8 21:19:48 22° WSW 21:22:38 80° S 21:45:13 10° E
H-2A R/B 2.9 21:23:03 10° N 21:26:02 36° W 21:27:41 21° SW
Delta 2 Rocket 4.2 21:24:16 21° W 21:26:16 31° SW 21:30:17 10° SSE
Cosmos 1743 4.3 21:23:56 10° SSE 21:27:13 34° E 21:30:29 10° NNE
Stardust Del rocket 4.5 21:25:40 21° SW 21:27:22 29° SSW 21:32:40 10° SE
IRS-P3 4.2 21:24:21 10° NNE 21:29:39 85° ESE 21:34:58 10° S
Cosmos 1072 Rocket 4.4 21:26:22 10° S 21:32:36 79° W 21:38:45 10° N
Cosmos 1331 Rocket 4.0 21:30:17 10° SSW 21:35:34 76° WNW 21:40:48 10° N
COSMOS 2406 3.7 21:30:07 10° N 21:35:42 66° ENE 21:41:19 10° SSE
Tsikada Rocket 4.1 21:30:14 10° NNW 21:36:21 56° W 21:42:26 10° S
ARIANE 5 R/B 2.6 21:33:53 10° N 21:38:47 56° WNW 21:43:46 10° SSW
NOSS 2-1 (C) 4.5 21:33:58 10° SSW 21:40:20 63° ESE 21:44:45 10° NE
H-2A R/B 3.9 21:40:44 10° WNW 21:41:31 10° WNW 21:42:18 10° W
DELTA-4 R/B 3.3 21:36:14 10° W 21:41:46 43° NNW 21:44:46 10° ENE
Lacrosse 5 rocket 4.1 21:42:51 10° SE 21:43:50 11° ESE 21:44:51 10° ESE
Ariane 42P Rocket 3.0 21:40:06 12° WSW 21:44:25 31° S 21:46:39 10° ESE
Meteor 1-27 Rocket 4.0 21:40:30 10° N 21:46:24 79° E 21:52:13 10° S
ARIANE 5 R/B 2.4 21:36:46 10° W 21:46:28 59° S 21:49:08 10° ESE
Cosmos 1464 Rocket 4.1 21:41:34 10° SSW 21:47:50 62° W 21:54:02 10° N
Okean 1 3.2 21:46:03 10° NNW 21:49:45 61° W 21:53:29 10° S
BREEZE-M DEB (TANK) 3.5 21:48:49 10° WNW 21:51:28 18° WSW 21:53:17 10° SSW
SJ-11-01 4.4 21:50:57 10° N 21:55:27 54° WNW 21:59:59 10° SSW
Cosmos 1452 Rocket 4.1 21:51:13 10° SW 21:56:00 37° WNW 22:00:48 10° N
Cosmos 1302 Rocket 4.4 21:53:12 10° S 21:58:21 69° ESE 22:03:29 10° NNE
Cosmos 2344 4.5 21:54:45 10° SW 22:03:57 38° WNW 22:11:11 10° N
